Location: Eastlake (historical)
(39.0077°N, 122.6678°W)
Time: 04:59:49
(UTC+00:00)

Aureole 2 Rocket - Pass Details

Date: 25 November 2020
Orbit: 289 x 388 km, 73.9° (Epoch: 24 January)

Event Time Altitude Azimuth Distance (km) Brightness Sun altitude
Rises 14:13:32 0° 178° (S) 1,979 6.0 -10.1°
Reaches altitude 10° 14:15:34 10° 165° (SSE) 1,150 5.0 -9.7°
Maximum altitude 14:17:44 27° 104° (ESE) 610 4.1 -9.3°
Drops below altitude 10° 14:19:55 10° 43° (NE) 1,146 4.8 -8.9°
Sets 14:21:56 0° 30° (NNE) 1,969 5.8 -8.5°
